Date String (YYYY-MM-DD hh:mm:ss) UTC,Instrument flags,Ambient pressure (hPa),Sample flow (lpm),Bypass flow (lpm),Sample temperature (°C),Ambient temperature (°C),ASC tube jacket temperature (°C),LED temperature (°C),Box temperature (°C),Sample RH (%),Span deviation,Mass concentration (μg/m³),Mass concentration (μg/m³),Mass concentration (μg/m³)
DateTimeUTC,F1_M11,P_M11,Q1_M11,Q2_M11,T1_M11,T2_M11,T3_M11,T4_M11,T5_M11,U1_M11,ZSPAN_M11,X2_M11,X0_M11,X1_M11
2022-02-28 11:00:00,,0831.4,4.98,0.00,22.6,21.9,00.0,31.6,24.4,06.4,0000.0,0002.90,0004.97,0002.61
2022-02-28 11:01:00,,0831.4,5.01,0.00,22.6,21.9,00.0,31.6,24.3,06.2,0000.0,0002.92,0004.96,0002.64
2022-02-28 11:02:00,,0831.4,5.01,0.00,22.6,21.9,00.0,31.6,24.3,06.1,0000.0,0002.91,0004.94,0002.64
2022-02-28 11:03:00,,0831.4,5.00,0.00,22.6,22.0,00.0,31.6,24.3,06.2,0000.0,0002.90,0004.92,0002.66
2022-02-28 11:04:00,,0831.4,4.99,0.00,22.6,22.0,00.0,31.6,24.4,06.2,0000.0,0002.96,0005.00,0002.70
2022-02-28 11:05:00,,0831.4,5.01,0.00,22.6,22.0,00.0,31.6,24.4,06.2,0000.0,0002.92,0004.96,0002.67
2022-02-28 11:06:00,,0831.4,5.00,0.00,22.6,22.0,00.0,31.6,24.5,06.2,0000.0,0002.93,0004.61,0002.69
2022-02-28 11:07:00,,0831.5,4.98,0.00,22.6,22.0,00.0,31.6,24.4,06.2,0000.0,0002.95,0003.45,0002.73
2022-02-28 11:08:00,,0831.5,5.01,0.00,22.6,22.0,00.0,31.6,24.4,06.2,0000.0,0002.99,0003.51,0002.76
2022-02-28 11:09:00,,0831.4,5.00,0.00,22.6,22.0,00.0,31.6,24.4,06.4,0000.0,0002.97,0003.49,0002.75
2022-02-28 11:10:00,,0831.5,5.00,0.00,22.6,22.0,00.0,31.6,24.4,06.3,0000.0,0002.91,0003.43,0002.70
2022-02-28 11:11:00,,0831.4,5.00,0.00,22.6,22.0,00.0,31.6,24.5,06.4,0000.0,0002.94,0003.74,0002.69
2022-02-28 11:12:00,,0831.4,4.99,0.00,22.6,22.0,00.0,31.6,24.4,06.3,0000.0,0002.98,0003.81,0002.72
2022-02-28 11:13:00,,0831.4,5.01,0.00,22.6,22.0,00.0,31.6,24.4,06.3,0000.0,0003.04,0003.92,0002.76
2022-02-28 11:14:00,,0831.4,4.98,0.00,22.6,22.0,00.0,31.6,24.4,06.3,0000.0,0003.09,0004.70,0002.79
2022-02-28 11:15:00,,0831.4,5.00,0.00,22.6,22.0,00.0,31.6,24.4,06.3,0000.0,0003.10,0005.22,0002.79
2022-02-28 11:16:00,,0831.4,5.00,0.00,22.6,22.0,00.0,31.6,24.4,06.3,0000.0,0003.10,0005.53,0002.80
2022-02-28 11:17:00,,0831.3,5.01,0.00,22.6,22.0,00.0,31.6,24.4,06.3,0000.0,0003.11,0005.53,0002.81
2022-02-28 11:18:00,,0831.4,5.00,0.00,22.6,22.0,00.0,31.6,24.4,06.3,0000.0,0003.12,0005.55,0002.81
2022-02-28 11:19:00,,0831.4,5.00,0.00,22.6,21.9,00.0,31.6,24.3,06.3,0000.0,0003.09,0005.51,0002.79
2022-02-28 11:20:00,,0831.4,5.01,0.00,22.6,21.9,00.0,31.6,24.3,06.3,0000.0,0003.07,0005.49,0002.78
2022-02-28 11:21:00,,0831.3,5.01,0.00,22.6,21.9,00.0,31.6,24.3,06.3,0000.0,0003.12,0005.61,0002.80
2022-02-28 11:22:00,,0831.3,4.99,0.00,22.6,21.9,00.0,31.6,24.3,06.3,0000.0,0003.11,0005.38,0002.79
2022-02-28 11:23:00,,0831.3,5.00,0.00,22.6,21.9,00.0,31.6,24.3,06.3,0000.0,0003.09,0005.46,0002.77
2022-02-28 11:24:00,,0831.4,5.00,0.00,22.6,21.9,00.0,31.6,24.4,06.3,0000.0,0003.06,0006.33,0002.77
2022-02-28 11:25:00,,0831.4,5.00,0.00,22.6,21.9,00.0,31.6,24.4,06.3,0000.0,0003.08,0006.41,0002.76
2022-02-28 11:26:00,,0831.4,5.00,0.00,22.6,21.9,00.0,31.6,24.3,06.2,0000.0,0003.09,0005.95,0002.75
2022-02-28 11:27:00,,0831.3,4.99,0.00,22.6,21.9,00.0,31.6,24.4,06.2,0000.0,0003.08,0005.62,0002.74
2022-02-28 11:28:00,,0831.2,5.01,0.00,22.6,21.9,00.0,31.6,24.4,06.2,0000.0,0003.10,0005.68,0002.73
2022-02-28 11:29:00,,0831.3,5.01,0.00,22.6,21.9,00.0,31.6,24.3,06.3,0000.0,0003.07,0005.63,0002.72
2022-02-28 11:30:00,,0831.2,4.99,0.00,22.5,21.8,00.0,31.6,24.3,06.3,0000.0,0003.07,0005.69,0002.71
2022-02-28 11:31:00,,0831.2,5.00,0.00,22.5,21.8,00.0,31.6,24.3,06.3,0000.0,0003.06,0005.67,0002.70
2022-02-28 11:32:00,,0831.2,5.01,0.00,22.5,21.8,00.0,31.6,24.3,06.3,0000.0,0003.02,0005.67,0002.68
2022-02-28 11:33:00,,0831.2,5.00,0.00,22.5,21.8,00.0,31.6,24.3,06.3,0000.0,0002.98,0005.83,0002.66
2022-02-28 11:34:00,,0831.2,4.99,0.00,22.5,21.8,00.0,31.6,24.3,06.3,0000.0,0003.01,0005.76,0002.65
2022-02-28 11:35:00,,0831.2,5.00,0.00,22.5,21.8,00.0,31.6,24.3,06.4,0000.0,0003.01,0004.85,0002.63
2022-02-28 11:36:00,,0831.3,5.00,0.00,22.5,21.7,00.0,31.6,24.3,06.4,0000.0,0002.99,0004.12,0002.62
2022-02-28 11:37:00,,0831.4,5.01,0.00,22.5,21.8,00.0,31.5,24.3,06.4,0000.0,0002.94,0004.04,0002.61
2022-02-28 11:38:00,,0831.4,5.01,0.00,22.5,21.8,00.0,31.5,24.3,06.4,0000.0,0002.89,0003.94,0002.59
2022-02-28 11:39:00,,0831.4,4.99,0.00,22.5,21.8,00.0,31.5,24.3,06.4,0000.0,0002.86,0003.98,0002.57
2022-02-28 11:40:00,,0831.4,5.01,0.00,22.5,21.8,00.0,31.5,24.4,06.4,0000.0,0002.87,0004.04,0002.56
2022-02-28 11:41:00,,0831.4,5.01,0.00,22.5,21.8,00.0,31.5,24.4,06.3,0000.0,0002.89,0004.00,0002.58
2022-02-28 11:42:00,,0831.4,4.98,0.00,22.6,21.9,00.0,31.5,24.4,06.4,0000.0,0003.02,0004.15,0002.71
2022-02-28 11:43:00,,0831.4,5.01,0.00,22.6,21.9,00.0,31.5,24.4,06.2,0000.0,0003.10,0004.11,0002.80
2022-02-28 11:44:00,,0831.4,5.01,0.00,22.6,21.8,00.0,31.5,24.4,06.3,0000.0,0003.14,0003.96,0002.84
2022-02-28 11:45:00,,0831.4,5.00,0.00,22.6,21.8,00.0,31.5,24.4,06.3,0000.0,0003.12,0004.83,0002.83
2022-02-28 11:46:00,,0831.4,5.00,0.00,22.6,21.9,00.0,31.5,24.4,06.4,0000.0,0003.11,0004.93,0002.83
2022-02-28 11:47:00,,0831.4,4.98,0.00,22.6,21.9,00.0,31.5,24.4,06.5,0000.0,0003.11,0005.84,0002.84
2022-02-28 11:48:00,,0831.4,5.00,0.00,22.6,21.9,00.0,31.5,24.4,06.5,0000.0,0003.13,0006.55,0002.85
2022-02-28 11:49:00,,0831.5,5.01,0.00,22.6,21.9,00.0,31.5,24.4,06.5,0000.0,0003.16,0006.68,0002.88
2022-02-28 11:50:00,,0831.6,5.00,0.00,22.6,21.9,00.0,31.6,24.4,06.5,0000.0,0003.18,0006.61,0002.90
2022-02-28 11:51:00,,0831.6,5.01,0.00,22.6,21.9,00.0,31.6,24.4,06.5,0000.0,0003.19,0006.66,0002.93
2022-02-28 11:52:00,,0831.6,4.98,0.00,22.6,21.9,00.0,31.6,24.4,06.5,0000.0,0003.21,0006.82,0002.94
2022-02-28 11:53:00,,0831.6,5.01,0.00,22.6,21.9,00.0,31.6,24.4,06.5,0000.0,0003.15,0006.74,0002.83
2022-02-28 11:54:00,,0831.6,4.99,0.00,22.6,21.9,00.0,31.6,24.4,06.5,0000.0,0003.11,0006.67,0002.75
2022-02-28 11:55:00,,0831.6,5.01,0.00,22.6,21.9,00.0,31.6,24.4,06.4,0000.0,0003.09,0006.68,0002.72
2022-02-28 11:56:00,,0831.5,4.99,0.00,22.6,21.9,00.0,31.6,24.4,06.4,0000.0,0003.06,0006.03,0002.73
2022-02-28 11:57:00,,0831.6,5.00,0.00,22.6,21.9,00.0,31.6,24.3,06.5,0000.0,0003.08,0005.58,0002.77
2022-02-28 11:58:00,,0831.6,5.01,0.00,22.6,21.9,00.0,31.6,24.3,06.5,0000.0,0003.06,0005.37,0002.77
2022-02-28 11:59:00,,0831.6,4.99,0.00,22.6,21.9,00.0,31.6,24.3,06.4,0000.0,0003.03,0004.15,0002.75
